Regional Weather Roundup
Issued by NWS

Home | Current Version | Previous Version | Graphics & Text | Print | Product List | Glossary On
Versions: 1 2 3 4 5 6 7 8 9 10 11 12 13 14 15 16 17 18 19 20 21 22 23 24 25 26 27 28 29 30 31 32 33 34 35 36 37 38 39 40 41 42 43 44 45 46 47 48 49 50
000
ASUS45 KPSR 202300
RWRAZ

PRELIMINARY ARIZONA REGIONAL HOURLY WEATHER ROUNDUP
NATIONAL WEATHER SERVICE PHOENIX AZ
400 PM MST WED AUG 20 2014

NOTE: FAIR INDICATES FEW OR NO CLOUDS BELOW 12,000 FEET WITH NO
SIGNIFICANT WEATHER AND/OR OBSTRUCTIONS TO VISIBILITY.

AZZ001>003-036-210000-
NORTHWEST ARIZONA

CITY           SKY/WX    TMP DP  RH WIND       PRES   REMARKS
KINGMAN        CLOUDY    86  51  29 E13       29.98F
$$

AZZ004>008-015-016-018-210000-
NORTH CENTRAL ARIZONA

CITY           SKY/WX    TMP DP  RH WIND       PRES   REMARKS
GRAND CANYON   PTSUNNY   72  45  37 S16       30.19F
WILLIAMS       PTSUNNY   68  46  45 W9        30.27S
PRESCOTT       MOSUNNY   77  50  38 VRB7      30.11F THUNDER
FLAGSTAFF      MOSUNNY   70  47  43 S14       30.23F
PAYSON         MOSUNNY   81  54  39 VRB7G14   30.12F
PAGE           LGT RAIN  78  50  37 W7        30.00R
$$

AZZ009>014-017-210000-
NORTHEAST ARIZONA

CITY           SKY/WX    TMP DP  RH WIND       PRES   REMARKS
WINSLOW        NOT AVBL
SAINT JOHNS    PTSUNNY   79  42  26 W17       30.10F
WINDOW ROCK    MOSUNNY   80  36  20 W9        30.16F
$$

AZZ023-210000-
GREATER PHOENIX AREA

CITY           SKY/WX    TMP DP  RH WIND       PRES   REMARKS
PHOENIX        MOSUNNY   97  58  27 S6        29.81F
GLENDALE       MOSUNNY   97  55  24 N5        29.83F
DEER VALLEY    SUNNY     94  55  26 W7        29.84F
SCOTTSDALE     SUNNY     95  56  26 SW6       29.86F
MESA-FALCON    MOSUNNY   95  57  28 NW9       29.84F
MESA-GATEWAY   PTSUNNY   95  52  23 NW5       29.86F
CHANDLER       PTSUNNY   95  54  24 NW6       29.83F
$$

AZZ027-028-210000-
SOUTHWEST MARICOPA COUNTY AND PINAL COUNTY

CITY           SKY/WX    TMP DP  RH WIND       PRES   REMARKS
CASA GRANDE    MOSUNNY   97  55  24 CALM      29.84F
GILA BEND      MOCLDY    97  54  23 W1        29.79F
$$

AZZ503-504-507>509-210000-
SOUTHEAST ARIZONA

CITY           SKY/WX    TMP DP  RH WIND       PRES   REMARKS
TUCSON         PTSUNNY   89  50  26 SW13      29.94F
RYAN FIELD       N/A     90  54  29 S17       29.92F
NOGALES        PTSUNNY   71  63  75 VRB3      30.03F
SIERRA VISTA   PTSUNNY   77  57  50 SE5       30.10F
SAFFORD        PTSUNNY   87  53  31 W10       29.94F
$$

AZZ020-021-025-026-031-210000-
SOUTHWEST ARIZONA

CITY           SKY/WX    TMP DP  RH WIND       PRES   REMARKS
YUMA           MOSUNNY  102  52  18 S13       29.74F
$$

CAZ031-033-041-043-047-048-061-210000-
SOUTHERN CALIFORNIA

CITY           SKY/WX    TMP DP  RH WIND       PRES   REMARKS
DOWNTOWN L.A.  MOSUNNY   79  60  52 W6        29.88F
L.A. AIRPORT   MOSUNNY   75  59  57 W13       29.90F
SAN DIEGO      PTSUNNY   76  61  59 W9        29.90F
BURBANK        SUNNY     80  56  43 S9        29.88F
ONTARIO        TSTM      87  54  32 E16G22    29.88F
RIVERSIDE      PTSUNNY   73  61  65 E7        29.89F
PALM SPRINGS   MOSUNNY   96  50  20 NW14      29.80F
EL CENTRO NAS  PTSUNNY   99  43  14 CALM      29.73F
IMPERIAL       MOSUNNY   99  45  15 E6        29.73F
BLYTHE         SUNNY    100  48  17 S8G17     29.75F
$$

NVZ020-UTZ003-210000-
SOUTHERN NEVADA-UTAH

CITY           SKY/WX    TMP DP  RH WIND       PRES   REMARKS
LAS VEGAS      NOT AVBL
SALT LAKE CITY CLOUDY    78  51  38 S22G28    29.91F
$$

NMZ009-TXZ055-210000-
NEW MEXICO-WEST TEXAS

CITY           SKY/WX    TMP DP  RH WIND       PRES   REMARKS
ALBUQUERQUE    PTSUNNY   85  42  22 SW10      30.03F
EL PASO        MOSUNNY   91  50  24 VRB7      29.93F
$$


........................KEY........................
SKY/WX - SKY CONDITION/WEATHER
TMP    - TEMPERATURE IN FAHRENHEIT
DP     - DEW POINT IN FAHRENHEIT
RH     - RELATIVE HUMIDITY IN PERCENT
WIND   - DIRECTION AND SPEED IN MILES PER HOUR (MPH)
VRB    - VARIABLE WIND DIRECTION
PRES   - MEAN SEA LEVEL PRESSURE IN INCHES OF MERCURY
         F - FALLING PRESSURE   R - RISING PRESSURE
         S - STEADY PRESSURE
VSB    - VISIBILITY IN MILES
HX     - HEAT INDEX IN FAHRENHEIT
WCI    - WIND CHILL INDEX IN FAHRENHEIT
TC     - TEMPERATURE IN CELSIUS WHICH IS ALSO KNOWN AS
         TEMPERATURE IN CENTIGRADE
AFB    - AIR FORCE BASE
         LUKE AFB IS LUKE AIR FORCE BASE
         DAVIS-MONTHAN IS DAVIS-MONTHAN AIR FORCE BASE
NAS    - NAVAL AIR STATION
         EL CENTRO NAS IS EL CENTRO NAVAL AIR STATION
N/A    - NOT AVAILABLE



USA.gov is the U.S. government's official web portal to all federal, state and local government web resources and services.